ATLAS D R/B, 1616

Orbit data source: Space-Track

ATLAS D R/B, 1616 is space debris in LEO originally from a launch on Tue, 05 Oct 1965 UTC launched from the Air Force Western Test Range (AFWTR). Debris objects in space refer to the collection of defunct objects orbiting the Earth. Examples of debris include non-operational satellites, rocket bodies, and fragments generated from explosions, collisions, or faulty payload assembly.

Loading next visibility...
ATLAS D R/B details
Identifier
1616, 1965-078B
Orbit
LEO
Last TLE update20 hours ago
Origin
Flag of USUSAF OAR (US)
ManufacturerABL
MissionSpacecraft
Bus & MotorALTAIR, Unknown motor
Mass70 kg wet, 70 kg dry
Launch date (UTC)
1965-10-05 (59 years ago)
Launch vehicleUnknown
Launch site
Air Force Western Test Range (AFWTR)
Object type
Payload
Rocket body
Debris
Shape & HBRCyl, 3.1 m
Radar Cross Section8.765 m², Medium (>0.1 m² and < 1m²)

Expand to show TLE details & history

TLE from 20 hours ago
0 ATLAS D R/B
1  1616U 65078B   25017.89554759  .00015868  00000-0  14396-2 0  9990
2  1616 144.2379  22.6330 1004251  11.9275 350.3578 13.28985036681865
Epoch: 2025-01-17T21:29Z
Definitive object data (Epoch: 2025-01-17T21:29:35.311Z)
Latitude-0.00002°
Longitude-57.31672°
Altitude406.925 km
Speed8.037 km/s
True Right ascension01h 30m 31s
True Declination0° 00' 00"
Sunlit
Object was in daylight at TLE epoch
Visualization TLE readout
Latitude-0.88739°
Longitude-52.26945°
Altitude426.818 km
Speed8.016 km/s
Apparent Right ascension03h 37m 49s
Apparent Declination-22° 52' 39"
Sunlit
Object is in daylight
Visualization observer readout
Local Sidereal Time18:12:45
Azimuth74.213° E
Elevation-53.195°
Doppler factor1
Orbital elements
Apogee altitude1,909.861 km
Perigee altitude397.131 km
Semi-major axis7,531.633 km
Eccentricity0.1004251
Inclination144.2379°
RAAN22.633°
Arg. of periapsis11.9275°
True anomaly348.16041°
Mean anomaly350.3578°
Eccentric anomaly349.28834°
Mean motion3.32055 °/min
BSTAR0.0014396
Orbital period108.42 mins
Loading maneuver chart data...
Loading historical data...
Loading historical data...
Loading historical data...
Loading historical data...
Loading historical data...
Loading historical data...
Loading historical data...
Other satellites on launch #78 in the year 1965 (1965-10-05 UTC)

ATLAS D R/B Visibility forecast

Observer location: undefined°, undefined

Span
Click to sort rows by Start time (UTC) header in descending order
Start Az.
Max El. time (UTC)
Max El. Az.
Max El.
End time (UTC)
End Az.
11 mins2025-01-18 17:41:45.741Z95.511° ESE2025-01-18 17:46:45.741Z176.335° S39.624°2025-01-18 17:52:45.741Z248.828° W
8 mins2025-01-18 19:26:45.741Z117.861° SE2025-01-18 19:29:45.741Z205.649° SW38.452°2025-01-18 19:34:45.741Z264.006° W
5 mins2025-01-18 21:10:45.741Z159.576° S2025-01-18 21:12:45.741Z207.371° SW23.653°2025-01-18 21:15:45.741Z256.677° W
5 mins2025-01-19 13:49:45.741Z135.548° SSE2025-01-19 13:51:45.741Z150.352° SSE12.285°2025-01-19 13:54:45.741Z170.477° S
10 mins2025-01-19 15:29:45.741Z112.34° ESE2025-01-19 15:33:45.741Z159.776° S25.557°2025-01-19 15:39:45.741Z210.54° SW
7 mins2025-01-19 17:12:45.741Z106.536° ESE2025-01-19 17:15:45.741Z163.674° S36.172°2025-01-19 17:19:45.741Z228.939° WSW
|